SCP
0 0 0 0 0 0 0 0 0 0 0 0 0 0 0 0 0 0 0 0 0 0 0 0 0 0 0 0 0 0 0 0 0 0 0 0 0 0
0 0 0 0 0 0 0 0 0 0 0 0 0 0 0 0 0 0 0 0 0 0 0 0 0 0 0 0 0 0 0 0 0 0 0 0 0 0
0 0 0 0 0 0 0 0 0 0 0 0 0 0 0 0 0 0 0 0 0 0 0 0 0 0 0 0 0 0 0 0 0 0 0 0 0 0
0 0 0 0 0 0 0 0 0 0 0 0 0 0 0 0 0 0 0 0 0 0 0 0 0 0 0 0 0 0 0 0 0 0 0 0 0 0
0 0 0 0 0 0 0 0 0 0 0 0 0 0 0 0 0 0 0 0 0 0 0 0 0 0 0 0 0 0 0 0 0 0 0 0 0 0
0 0 0 0 0 0 0 0 0 0 0 0 0 0 0 0 0 0 0 0 0 0 0 0 0 0 0 0 0 0 0 0 0 0 0 0 0 0
0 0 0 0 0 0 0 0 0 0 0 0 0 0 0 0 0 0 0 0 0 0 0 0 0 0 0 0 0 0 0 0 0 0 0 0 0 0
0 0 0 0 0 0 0 0 0 0 0 0 0 0 0 0 0 0 0 0 0 0 0 0 0 0 0 0 0 0 0 0 0 0 0 0 0 0
0 0 0 0 0 0 0 0 0 0 0 0 0 0 0 0 0 0 0 0 0 0 0 0 0 0 0 0 0 0 0 0 0 0 0 0 0 0
0 0 0 0 0 0 0 0 0 0 0 0 0 0 0 0 0 0 0 0 0 0 0 0 0 0 0 0 0 0 0 0 0 0 0 0 0 0
0 0 0 0 0 0 0 0 0 0 0 0 0 0 0 0 0 0 0 0 0 0 0 0 0 0 0 0 0 0 0 0 0 0 0 0 0 0
0 0 0 0 0 0 0 0 0 0 0 0 0 0 0 0 0 0 0 0 0 0 0 0 0 0 0 0 0 0 0 0 0 0 0 0 0 0
0 0 0 0 0 0 0 0 0 0 0 0 0 0 0 0 0 0 0 0 0 0 0 0 0 0 0 0 0 0 0 0 0 0 0 0 0 0
0 0 0 0 0 0 0 0 0 0 0 0 0 0 0 0 0 0 0 0 0 0 0 0 0 0 0 0 0 0 0 0 0 0 0 0 0 0
0 0 0 0 0 0 0 0 0 0 0 0 0 0 0 0 0 0 0 0 0 0 0 0 0 0 0 0 0 0 0 0 0 0 0 0 0 0
0 0 0 0 0 0 0 0 0 0 0 0 0 0 0 0 0 0 0 0 0 0 0 0 0 0 0 0 0 0 0 0 0 0 0 0 0 0
0 0 0 0 0 0 0 0 0 0 0 0 0 0 0 0 0 0 0 0 0 0 0 0 0 0 0 0 0 0 0 0 0 0 0 0 0 0
0 0 0 0 0 0 0 0 0 0 0 0 0 0 0 0 0 0 0 0 0 0 0 0 0 0 0 0 0 0 0 0 0 0 0 0 0 0
0 0 0 0 0 0 0 0 0 0 0 0 0 0 0 0 0 0 0 0 0 0 0 0 0 0 0 0 0 0 0 0 0 0 0 0 0 0
0 0 0 0 0 0 0 0 0 0 0 0 0 0 0 0 0 0 0 0 0 0 0 0 0 0 0 0 0 0 0 0 0 0 0 0 0 0
0 0 0 0 0 0 0 0 0 0 0 0 0 0 0 0 0 0 0 0 0 0 0 0 0 0 0 0 0 0 0 0 0 0 0 0 0 0
0 0 0 0 0 0 0 0 0 0 0 0 0 0 0 0 0 0 0 0 0 0 0 0 0 0 0 0 0 0 0 0 0 0 0 0 0 0
0 0 0 0 0 0 0 0 0 0 0 0 0 0 0 0 0 0 0 0 0 0 0 0 0 0 0 0 0 0 0 0 0 0 0 0 0 0
Wind_Speed
4 5 4 4 4 4 4 4 4 8 7 4 4 4 5 5 10 7 6 14 20 20 20 20 21 22 22 22 22 22 21 20 19 18 18 18 18 19
3 3 3 3 3 3 3 3 4 5 8 3 4 5 6 8 14 9 7 21 22 23 23 22 22 22 22 23 23 23 22 21 20 19 19 18 19 19
4 4 5 4 3 4 4 4 4 4 9 7 4 4 6 8 9 8 8 8 10 20 22 21 20 20 20 20 20 20 20 21 21 20 19 19 19 20
5 5 6 6 6 5 4 5 5 5 6 11 6 4 6 7 8 9 10 10 7 15 19 19 18 17 16 16 16 16 16 16 17 18 19 19 19 20
5 6 7 7 7 6 6 6 6 7 6 8 8 5 5 6 7 9 10 8 10 12 15 16 16 15 13 12 13 13 13 14 14 15 17 18 18 19
6 6 7 7 8 8 7 7 7 7 7 8 9 7 7 7 6 7 8 6 8 9 12 13 14 15 14 13 13 13 13 14 14 15 14 14 16 16
8 7 8 12 15 11 9 7 7 7 7 8 9 8 7 6 6 6 9 8 8 7 7 8 7 6 7 11 14 14 13 14 14 15 14 13 13 12
8 9 10 11 13 18 20 19 17 12 9 9 8 9 9 8 7 7 8 9 7 4 5 7 5 6 6 6 11 13 12 13 14 15 14 13 12 11
8 8 9 10 13 10 14 18 17 19 19 12 10 9 9 8 8 9 9 9 9 6 5 7 6 7 7 8 13 13 13 12 13 13 14 13 12 10
8 9 9 10 11 12 12 12 11 11 12 9 8 9 9 8 8 8 9 8 7 7 6 5 3 5 5 5 10 12 11 11 11 12 12 12 11 10
9 9 10 10 13 16 12 11 11 9 10 11 10 10 12 12 9 6 5 5 5 4 2 3 2 2 2 3 4 8 10 10 10 10 11 12 11 10
8 9 12 11 14 15 10 8 9 8 8 8 8 7 6 6 7 5 4 5 4 3 2 2 2 2 3 2 1 2 4 8 10 11 12 12 12 7
8 7 8 13 15 14 11 7 9 9 7 6 5 5 4 3 3 3 4 3 4 3 3 3 2 2 2 2 2 2 3 3 4 6 11 14 14 11
7 7 8 14 15 13 9 10 12 9 5 4 4 4 4 3 3 4 5 4 3 4 5 4 2 2 2 2 3 2 3 4 5 5 6 10 13 16
7 12 14 14 12 8 10 12 9 5 5 5 5 4 4 4 4 4 4 4 3 4 5 4 3 2 2 2 3 3 3 3 4 5 6 7 7 8
8 10 13 11 9 8 8 7 5 5 5 5 5 4 4 4 4 4 3 4 3 3 4 5 6 5 3 3 3 3 3 3 2 2 4 5 7 7
7 5 5 6 6 6 6 6 5 6 6 5 4 4 4 4 4 4 4 4 4 4 5 4 3 2 6 8 4 5 5 4 3 2 3 5 6 6
6 5 6 6 6 6 6 6 5 6 6 5 4 4 4 4 5 4 4 5 5 6 6 6 6 4 2 6 15 8 7 6 6 8 7 6 6 5
5 5 6 6 6 6 6 5 5 6 6 5 4 4 4 5 5 5 6 5 6 6 7 7 7 7 7 8 10 18 10 8 8 10 10 8 7 6
5 6 6 7 6 6 6 6 6 6 6 5 4 4 4 5 5 6 6 7 7 7 7 8 8 8 7 5 5 10 20 11 9 10 10 10 10 14
6 6 6 6 6 6 7 7 7 7 7 6 5 4 3 3 4 5 6 9 8 7 8 8 8 10 4 3 6 9 13 22 20 10 7 8 9 10
6 6 6 7 6 7 7 7 7 7 8 6 5 4 2 2 2 3 4 5 6 6 8 7 8 7 7 9 10 10 11 12 20 29 28 18 7 7
5 5 6 6 6 6 6 7 8 7 7 7 6 5 3 1 1 2 3 4 5 6 7 7 7 7 9 9 10 10 14 14 12 15 17 25 28 26
Wind_Direction
269 269 264 266 265 255 245 234 262 291 287 256 263 261 267 271 281 282 274 289 294 291 287 284 281 278 275 270 267 264 259 255 254 256 260 265 270 273
323 323 308 295 291 281 270 260 243 267 285 252 249 261 278 291 294 292 285 294 292 289 285 280 276 272 269 265 261 259 255 250 248 249 252 258 264 269
357 345 322 309 296 290 281 270 262 255 279 283 251 264 272 277 288 285 281 275 276 281 282 280 276 271 267 264 259 255 252 247 244 245 248 254 262 267
333 325 313 311 300 286 277 268 263 252 261 283 282 270 268 271 275 279 289 287 279 285 285 284 283 278 271 264 258 251 245 241 240 242 246 253 261 265
314 307 301 300 294 287 279 271 266 269 256 269 279 269 268 274 280 283 283 281 284 286 287 286 285 286 282 270 259 251 242 237 236 236 241 249 256 263
305 297 292 288 283 282 283 274 273 273 268 269 275 274 270 268 266 276 284 275 277 282 283 281 281 283 282 278 265 251 241 235 233 231 233 239 249 256
309 302 297 304 307 307 304 294 287 280 277 275 278 278 275 272 268 266 278 280 273 264 268 269 268 266 270 272 269 258 243 234 230 228 228 232 237 242
310 308 306 305 310 313 310 306 300 293 289 281 280 278 278 271 271 273 276 280 280 251 250 265 254 257 253 243 251 252 246 238 229 224 223 223 226 228
303 304 310 311 314 304 304 305 300 294 290 285 283 281 278 276 277 279 275 276 276 270 262 266 251 253 250 250 248 243 240 237 231 223 216 214 215 219
301 298 299 304 308 312 310 302 295 292 289 288 275 276 277 277 274 278 283 282 274 271 258 262 248 246 250 240 243 239 234 229 226 221 212 208 208 211
305 305 307 307 310 317 316 309 306 304 304 298 289 285 285 287 289 288 286 292 295 285 256 261 272 272 263 248 238 231 226 224 222 219 211 206 205 203
311 310 312 312 316 321 320 316 316 317 317 317 312 307 300 297 303 299 305 302 301 291 321 311 287 293 292 279 244 225 225 229 227 224 221 215 203 193
313 314 314 319 322 323 324 319 318 316 310 310 311 313 316 315 316 312 307 304 305 293 316 310 288 275 271 289 276 235 218 220 221 227 226 220 206 194
310 313 316 321 324 326 328 327 327 327 318 318 318 317 317 320 318 314 313 311 308 304 310 305 278 283 281 275 281 278 241 227 221 222 217 211 208 201
313 320 325 327 330 329 330 334 336 333 326 325 327 322 315 318 321 320 319 320 319 338 354 355 342 315 298 294 294 285 276 248 224 222 209 198 189 182
326 325 326 330 338 334 332 334 333 327 325 323 326 325 334 345 350 344 339 342 343 344 355 11 19 20 3 332 331 324 307 295 276 238 193 174 166 167
325 329 337 339 344 343 340 336 334 338 339 338 341 352 0 4 360 352 356 357 6 4 3 352 336 359 41 23 0 358 355 358 3 28 96 115 128 144
351 343 341 339 341 344 343 338 334 339 340 347 355 5 9 9 9 9 10 17 23 22 17 5 360 1 356 45 25 11 16 21 31 45 60 81 91 101
360 346 341 341 343 346 345 341 338 339 345 357 9 14 17 17 17 20 21 26 31 33 29 23 19 21 41 36 20 20 24 30 43 53 53 56 63 70
352 347 344 344 348 351 351 347 344 348 355 4 16 25 26 25 26 28 29 31 35 38 39 34 29 26 32 31 25 26 32 35 41 53 57 63 68 72
347 347 345 346 349 351 350 349 350 354 0 5 14 26 33 34 35 34 37 34 39 42 46 39 25 18 15 36 56 46 43 47 52 47 41 58 62 61
343 343 342 345 349 351 351 352 354 359 2 4 4 9 22 43 43 41 42 44 45 48 50 44 32 33 41 57 59 53 52 55 57 58 54 56 63 63
339 339 341 344 349 350 352 353 355 358 359 358 356 354 357 15 30 42 45 51 55 57 57 54 48 49 53 56 62 60 57 56 57 60 60 62 71 77